Year,Month,Day,Hour,Minute,Value (Times are PST for temperature in C)
2018,10,24,00,00,9.20
2018,10,24,00,01,9.20
2018,10,24,00,02,9.20
2018,10,24,00,03,9.10
2018,10,24,00,04,9.10
2018,10,24,00,05,9.10
2018,10,24,00,06,9.10
2018,10,24,00,07,9.10
2018,10,24,00,08,9.10
2018,10,24,00,09,9.10
2018,10,24,00,10,9.00
2018,10,24,00,11,9.00
2018,10,24,00,12,9.00
2018,10,24,00,13,9.00
2018,10,24,00,14,9.00
2018,10,24,00,15,9.00
2018,10,24,00,16,9.10
2018,10,24,00,17,9.10
2018,10,24,00,18,9.10
2018,10,24,00,19,9.10
2018,10,24,00,20,9.10
2018,10,24,00,21,9.10
2018,10,24,00,22,9.10
2018,10,24,00,23,9.10
2018,10,24,00,24,9.10
2018,10,24,00,25,9.10
2018,10,24,00,26,9.10
2018,10,24,00,27,9.10
2018,10,24,00,28,9.10
2018,10,24,00,29,9.10
2018,10,24,00,30,9.10
2018,10,24,00,31,9.10
2018,10,24,00,32,9.10
2018,10,24,00,33,9.10
2018,10,24,00,34,9.10
2018,10,24,00,35,9.10
2018,10,24,00,36,9.10
2018,10,24,00,37,9.10
2018,10,24,00,38,9.10
2018,10,24,00,39,9.10
2018,10,24,00,40,9.00
2018,10,24,00,41,9.00
2018,10,24,00,42,9.00
2018,10,24,00,43,9.00
2018,10,24,00,44,9.00
2018,10,24,00,45,9.10
2018,10,24,00,46,9.00
2018,10,24,00,47,9.10
2018,10,24,00,48,9.10
2018,10,24,00,49,9.10
2018,10,24,00,50,9.10
2018,10,24,00,51,9.10
2018,10,24,00,52,9.10
2018,10,24,00,53,9.00
2018,10,24,00,54,9.00
2018,10,24,00,55,9.00
2018,10,24,00,56,9.00
2018,10,24,00,57,9.00
2018,10,24,00,58,9.00
2018,10,24,00,59,8.90
2018,10,24,01,00,8.90
2018,10,24,01,01,8.90
2018,10,24,01,02,8.90
2018,10,24,01,03,8.90
2018,10,24,01,04,8.90
2018,10,24,01,05,8.80
2018,10,24,01,06,8.80
2018,10,24,01,07,8.80
2018,10,24,01,08,8.80
2018,10,24,01,09,8.80
2018,10,24,01,10,8.80
2018,10,24,01,11,8.80
2018,10,24,01,12,8.80
2018,10,24,01,13,8.80
2018,10,24,01,14,8.80
2018,10,24,01,15,8.80
2018,10,24,01,16,8.80
2018,10,24,01,17,8.80
2018,10,24,01,18,8.80
2018,10,24,01,19,8.80
2018,10,24,01,20,8.80
2018,10,24,01,21,8.80
2018,10,24,01,22,8.80
2018,10,24,01,23,8.80
2018,10,24,01,24,8.80
2018,10,24,01,25,8.80
2018,10,24,01,26,8.80
2018,10,24,01,27,8.80
2018,10,24,01,28,8.80
2018,10,24,01,29,8.80
2018,10,24,01,30,8.80
2018,10,24,01,31,8.80
2018,10,24,01,32,8.80
2018,10,24,01,33,8.70
2018,10,24,01,34,8.70
2018,10,24,01,35,8.70
2018,10,24,01,36,8.60
2018,10,24,01,37,8.60
2018,10,24,01,38,8.50
2018,10,24,01,39,8.50
2018,10,24,01,40,8.40
2018,10,24,01,41,8.40
2018,10,24,01,42,8.40
2018,10,24,01,43,8.40
2018,10,24,01,44,8.30
2018,10,24,01,45,8.30
2018,10,24,01,46,8.30
2018,10,24,01,47,8.30
2018,10,24,01,48,8.30
2018,10,24,01,49,8.30
2018,10,24,01,50,8.30
2018,10,24,01,51,8.30
2018,10,24,01,52,8.40
2018,10,24,01,53,8.30
2018,10,24,01,54,8.30
2018,10,24,01,55,8.30
2018,10,24,01,56,8.20
2018,10,24,01,57,8.20
2018,10,24,01,58,8.20
2018,10,24,01,59,8.20
2018,10,24,02,00,8.10
2018,10,24,02,01,8.10
2018,10,24,02,02,8.10
2018,10,24,02,03,8.00
2018,10,24,02,04,8.00
2018,10,24,02,05,7.90
2018,10,24,02,06,7.80
2018,10,24,02,07,7.80
2018,10,24,02,08,7.70
2018,10,24,02,09,7.70
2018,10,24,02,10,7.70
2018,10,24,02,11,7.70
2018,10,24,02,12,7.60
2018,10,24,02,13,7.60
2018,10,24,02,14,7.50
2018,10,24,02,15,7.50
2018,10,24,02,16,7.50
2018,10,24,02,17,7.40
2018,10,24,02,18,7.40
2018,10,24,02,19,7.40
2018,10,24,02,20,7.40
2018,10,24,02,21,7.30
2018,10,24,02,22,7.30
2018,10,24,02,23,7.30
2018,10,24,02,24,7.30
2018,10,24,02,25,7.30
2018,10,24,02,26,7.30
2018,10,24,02,27,7.40
2018,10,24,02,28,7.40
2018,10,24,02,29,7.40
2018,10,24,02,30,7.40
2018,10,24,02,31,7.40
2018,10,24,02,32,7.40
2018,10,24,02,33,7.40
2018,10,24,02,34,7.40
2018,10,24,02,35,7.40
2018,10,24,02,36,7.40
2018,10,24,02,37,7.40
2018,10,24,02,38,7.40
2018,10,24,02,39,7.40
2018,10,24,02,40,7.40
2018,10,24,02,41,7.40
2018,10,24,02,42,7.40
2018,10,24,02,43,7.40
2018,10,24,02,44,7.40
2018,10,24,02,45,7.40
2018,10,24,02,46,7.40
2018,10,24,02,47,7.40
2018,10,24,02,48,7.40
2018,10,24,02,49,7.40
2018,10,24,02,50,7.40
2018,10,24,02,51,7.40
2018,10,24,02,52,7.40
2018,10,24,02,53,7.30
2018,10,24,02,54,7.30
2018,10,24,02,55,7.30
2018,10,24,02,56,7.30
2018,10,24,02,57,7.30
2018,10,24,02,58,7.30
2018,10,24,02,59,7.30
2018,10,24,03,00,7.30
2018,10,24,03,01,7.30
2018,10,24,03,02,7.30
2018,10,24,03,03,7.30
2018,10,24,03,04,7.30
2018,10,24,03,05,7.30
2018,10,24,03,06,7.30
2018,10,24,03,07,7.30
2018,10,24,03,08,7.30
2018,10,24,03,09,7.30
2018,10,24,03,10,7.30
2018,10,24,03,11,7.30
2018,10,24,03,12,7.30
2018,10,24,03,13,7.30
2018,10,24,03,14,7.30
2018,10,24,03,15,7.30
2018,10,24,03,16,7.30
2018,10,24,03,17,7.30
2018,10,24,03,18,7.30
2018,10,24,03,19,7.30
2018,10,24,03,20,7.30
2018,10,24,03,21,7.30
2018,10,24,03,22,7.30
2018,10,24,03,23,7.30
2018,10,24,03,24,7.30
2018,10,24,03,25,7.30
2018,10,24,03,26,7.30
2018,10,24,03,27,7.30
2018,10,24,03,28,7.30
2018,10,24,03,29,7.30
2018,10,24,03,30,7.30
2018,10,24,03,31,7.20
2018,10,24,03,32,7.20
2018,10,24,03,33,7.20
2018,10,24,03,34,7.20
2018,10,24,03,35,7.20
2018,10,24,03,36,7.20
2018,10,24,03,37,7.20
2018,10,24,03,38,7.20
2018,10,24,03,39,7.20
2018,10,24,03,40,7.20
2018,10,24,03,41,7.10
2018,10,24,03,42,7.10
2018,10,24,03,43,7.10
2018,10,24,03,44,7.10
2018,10,24,03,45,7.10
2018,10,24,03,46,7.10
2018,10,24,03,47,7.00
2018,10,24,03,48,7.00
2018,10,24,03,49,7.00
2018,10,24,03,50,6.90
2018,10,24,03,51,6.90
2018,10,24,03,52,6.90
2018,10,24,03,53,6.90
2018,10,24,03,54,6.80
2018,10,24,03,55,6.80
2018,10,24,03,56,6.80
2018,10,24,03,57,6.80
2018,10,24,03,58,6.80
2018,10,24,03,59,6.80
2018,10,24,04,00,6.80
2018,10,24,04,01,6.80
2018,10,24,04,02,6.80
2018,10,24,04,03,6.80
2018,10,24,04,04,6.80
2018,10,24,04,05,6.80
2018,10,24,04,06,6.80
2018,10,24,04,07,6.80
2018,10,24,04,08,6.80
2018,10,24,04,09,6.80
2018,10,24,09,33,8.20
2018,10,24,09,34,8.20
2018,10,24,09,35,8.20
2018,10,24,09,36,8.30
2018,10,24,09,37,8.30
2018,10,24,09,38,8.30
2018,10,24,09,39,8.30
2018,10,24,09,40,8.40
2018,10,24,09,41,8.40
2018,10,24,09,42,8.40
2018,10,24,09,43,8.40
2018,10,24,09,44,8.40
2018,10,24,09,45,8.50
2018,10,24,09,46,8.50
2018,10,24,09,47,8.50
2018,10,24,09,48,8.50
2018,10,24,09,49,8.50
2018,10,24,09,50,8.60
2018,10,24,09,51,8.60
2018,10,24,09,52,8.60
2018,10,24,09,53,8.60
2018,10,24,09,54,8.70
2018,10,24,09,55,8.80
2018,10,24,09,56,8.80
2018,10,24,09,57,8.90
2018,10,24,09,58,8.90
2018,10,24,09,59,9.00
2018,10,24,10,00,9.00
2018,10,24,10,01,9.10
2018,10,24,10,02,9.10
2018,10,24,10,03,9.20
2018,10,24,10,04,9.20
2018,10,24,10,05,9.20
2018,10,24,10,06,9.20
2018,10,24,10,07,9.30
2018,10,24,10,08,9.30
2018,10,24,10,09,9.30
2018,10,24,10,10,9.30
2018,10,24,10,11,9.40
2018,10,24,10,12,9.40
2018,10,24,10,13,9.40
2018,10,24,10,14,9.40
2018,10,24,10,15,9.40
2018,10,24,10,16,9.50
2018,10,24,10,17,9.50
2018,10,24,10,18,9.50
2018,10,24,10,19,9.50
2018,10,24,10,20,9.50
2018,10,24,10,21,9.50
2018,10,24,10,22,9.60
2018,10,24,10,23,9.60
2018,10,24,10,24,9.60
2018,10,24,10,25,9.60
2018,10,24,10,26,9.60
2018,10,24,10,27,9.60
2018,10,24,10,28,9.60
2018,10,24,10,29,9.60
2018,10,24,10,30,9.60
2018,10,24,10,31,9.60
2018,10,24,10,32,9.70
2018,10,24,10,33,9.70
2018,10,24,10,34,9.70
2018,10,24,10,35,9.70
2018,10,24,10,36,9.70
2018,10,24,10,37,9.80
2018,10,24,10,38,9.80
2018,10,24,10,39,9.80
2018,10,24,10,40,9.80
2018,10,24,10,41,9.90
2018,10,24,10,42,9.90
2018,10,24,10,43,9.90
2018,10,24,10,44,10.00
2018,10,24,10,45,10.00
2018,10,24,10,46,10.10
2018,10,24,10,47,10.10
2018,10,24,10,48,10.10
2018,10,24,10,49,10.10
2018,10,24,10,50,10.10
2018,10,24,10,51,10.10
2018,10,24,10,52,10.10
2018,10,24,10,53,10.10
2018,10,24,10,54,10.10
2018,10,24,10,55,10.20
2018,10,24,10,56,10.20
2018,10,24,10,57,10.20
2018,10,24,10,58,10.20
2018,10,24,10,59,10.20
2018,10,24,11,00,10.20
2018,10,24,11,01,10.20
2018,10,24,11,02,10.20
2018,10,24,11,03,10.20
2018,10,24,11,04,10.30
2018,10,24,11,05,10.30
2018,10,24,11,06,10.30
2018,10,24,11,07,10.30
2018,10,24,11,08,10.30
2018,10,24,11,09,10.30
2018,10,24,11,10,10.30
2018,10,24,11,11,10.30
2018,10,24,11,12,10.30
2018,10,24,11,13,10.30
2018,10,24,11,14,10.30
2018,10,24,11,15,10.40
2018,10,24,11,16,10.30
2018,10,24,11,17,10.40
2018,10,24,11,18,10.40
2018,10,24,11,19,10.40
2018,10,24,11,20,10.40
2018,10,24,11,21,10.40
2018,10,24,11,22,10.40
2018,10,24,11,23,10.40
2018,10,24,11,24,10.50
2018,10,24,11,25,10.50
2018,10,24,11,26,10.50
2018,10,24,11,27,10.50
2018,10,24,11,28,10.50
2018,10,24,11,29,10.60
2018,10,24,11,30,10.60
2018,10,24,11,31,10.60
2018,10,24,11,32,10.60
2018,10,24,11,33,10.60
2018,10,24,11,34,10.60
2018,10,24,11,35,10.60
2018,10,24,11,36,10.60
2018,10,24,11,37,10.60
2018,10,24,11,38,10.60
2018,10,24,11,39,10.60
2018,10,24,11,40,10.60
2018,10,24,11,41,10.60
2018,10,24,11,42,10.60
2018,10,24,11,43,10.60
2018,10,24,11,44,10.60
2018,10,24,11,45,10.60
2018,10,24,11,46,10.60
2018,10,24,11,47,10.60
2018,10,24,11,48,10.60
2018,10,24,11,49,10.70
2018,10,24,11,50,10.70
2018,10,24,11,51,10.70
2018,10,24,11,52,10.70
2018,10,24,11,53,10.80
2018,10,24,11,54,10.80
2018,10,24,11,55,10.80
2018,10,24,11,56,10.80
2018,10,24,11,57,10.80
2018,10,24,11,58,10.80
2018,10,24,11,59,10.80
2018,10,24,12,00,10.90
2018,10,24,12,01,10.90
2018,10,24,12,02,10.90
2018,10,24,12,03,10.90
2018,10,24,12,04,10.90
2018,10,24,12,05,10.90
2018,10,24,12,06,10.90
2018,10,24,12,07,10.90
2018,10,24,12,08,10.90
2018,10,24,12,09,10.90
2018,10,24,12,10,10.90
2018,10,24,12,11,10.90
2018,10,24,12,12,11.00
2018,10,24,12,13,11.00
2018,10,24,12,14,11.00
2018,10,24,12,15,11.00
2018,10,24,12,16,11.00
2018,10,24,12,17,11.00
2018,10,24,12,18,11.10
2018,10,24,12,19,11.10
2018,10,24,12,20,11.10
2018,10,24,12,21,11.10
2018,10,24,12,22,11.20
2018,10,24,12,23,11.20
2018,10,24,12,24,11.20
2018,10,24,12,25,11.30
2018,10,24,12,26,11.30
2018,10,24,12,27,11.30
2018,10,24,12,28,11.30
2018,10,24,12,29,11.30
2018,10,24,12,30,11.30
2018,10,24,12,31,11.30
2018,10,24,12,32,11.30
2018,10,24,12,33,11.30
2018,10,24,12,34,11.30
2018,10,24,12,35,11.30
2018,10,24,12,36,11.30
2018,10,24,12,37,11.30
2018,10,24,12,38,11.30
2018,10,24,12,39,11.30
2018,10,24,12,40,11.40
2018,10,24,12,41,11.40
2018,10,24,12,42,11.40
2018,10,24,12,43,11.40
2018,10,24,12,44,11.40
2018,10,24,12,45,11.40
2018,10,24,12,46,11.40
2018,10,24,12,47,11.40
2018,10,24,12,48,11.50
2018,10,24,12,49,11.50
2018,10,24,12,50,11.50
2018,10,24,12,51,11.60
2018,10,24,12,52,11.60
2018,10,24,12,53,11.60
2018,10,24,12,54,11.60
2018,10,24,12,55,11.60
2018,10,24,12,56,11.60
2018,10,24,12,57,11.70
2018,10,24,12,58,11.70
2018,10,24,12,59,11.60
2018,10,24,13,00,11.60
2018,10,24,13,01,11.60
2018,10,24,13,02,11.60
2018,10,24,13,03,11.60
2018,10,24,13,04,11.60
2018,10,24,13,05,11.60
2018,10,24,13,06,11.70
2018,10,24,13,07,11.70
2018,10,24,13,08,11.70
2018,10,24,13,09,11.70
2018,10,24,13,10,11.70
2018,10,24,13,11,11.70
2018,10,24,13,12,11.80
2018,10,24,13,13,11.80
2018,10,24,13,14,11.80
2018,10,24,13,15,11.80
2018,10,24,13,16,11.80
2018,10,24,13,17,11.80
2018,10,24,13,18,11.80
2018,10,24,13,19,11.80
2018,10,24,13,20,11.80
2018,10,24,13,21,11.90
2018,10,24,13,22,11.90
2018,10,24,13,23,11.90
2018,10,24,13,24,11.90
2018,10,24,13,25,11.90
2018,10,24,13,26,11.90
2018,10,24,13,27,11.90
2018,10,24,13,28,11.90
2018,10,24,13,29,11.90
2018,10,24,13,30,12.00
2018,10,24,13,31,12.00
2018,10,24,13,32,12.00
2018,10,24,13,33,12.00
2018,10,24,13,34,12.00
2018,10,24,13,35,12.00
2018,10,24,13,36,12.00
2018,10,24,13,37,12.00
2018,10,24,13,38,12.00
2018,10,24,13,39,12.00
2018,10,24,13,40,12.00
2018,10,24,13,41,11.90
2018,10,24,13,42,11.90
2018,10,24,13,43,11.90
2018,10,24,13,44,11.90
2018,10,24,13,45,11.90
2018,10,24,13,46,11.90
2018,10,24,13,47,11.90
2018,10,24,13,48,11.90
2018,10,24,13,49,11.90
2018,10,24,13,50,11.90
2018,10,24,13,51,11.90
2018,10,24,13,52,12.00
2018,10,24,13,53,12.00
2018,10,24,13,54,12.00
2018,10,24,13,55,12.10
2018,10,24,13,56,12.10
2018,10,24,13,57,12.10
2018,10,24,13,58,12.10
2018,10,24,13,59,12.10
2018,10,24,14,00,12.10
2018,10,24,14,01,12.10
2018,10,24,14,02,12.10
2018,10,24,14,03,12.10
2018,10,24,14,04,12.10
2018,10,24,14,05,12.20
2018,10,24,14,06,12.20
2018,10,24,14,07,12.20
2018,10,24,14,08,12.20
2018,10,24,14,09,12.20
2018,10,24,14,10,12.20
2018,10,24,14,11,12.20
2018,10,24,14,12,12.20
2018,10,24,14,13,12.20
2018,10,24,14,14,12.20
2018,10,24,14,15,12.20
2018,10,24,14,16,12.20
2018,10,24,14,17,12.20
2018,10,24,14,18,12.20
2018,10,24,14,19,12.20
2018,10,24,14,20,12.30
2018,10,24,14,21,12.30
2018,10,24,14,22,12.30
2018,10,24,14,23,12.30
2018,10,24,14,24,12.30
2018,10,24,14,25,12.30
2018,10,24,14,26,12.30
2018,10,24,14,27,12.30
2018,10,24,14,28,12.40
2018,10,24,14,29,12.40
2018,10,24,14,30,12.40
2018,10,24,14,31,12.40
2018,10,24,14,32,12.40
2018,10,24,14,33,12.40
2018,10,24,14,34,12.50
2018,10,24,14,35,12.50
2018,10,24,14,36,12.50
2018,10,24,14,37,12.50
2018,10,24,14,38,12.60
2018,10,24,14,39,12.60
2018,10,24,14,40,12.60
2018,10,24,14,41,12.70
2018,10,24,14,42,12.70
2018,10,24,14,43,12.70
2018,10,24,14,44,12.70
2018,10,24,14,45,12.70
2018,10,24,14,46,12.70
2018,10,24,14,47,12.70
2018,10,24,14,48,12.70
2018,10,24,14,49,12.70
2018,10,24,14,50,12.70
2018,10,24,14,51,12.70
2018,10,24,14,52,12.70
2018,10,24,14,53,12.70
2018,10,24,14,54,12.80
2018,10,24,14,55,12.80
2018,10,24,14,56,12.80
2018,10,24,14,57,12.80
2018,10,24,14,58,12.80
2018,10,24,14,59,12.80
2018,10,24,15,00,12.80
2018,10,24,15,01,12.80
2018,10,24,15,02,12.90
2018,10,24,15,03,12.90
2018,10,24,15,04,12.90
2018,10,24,15,05,12.90
2018,10,24,15,06,13.00
2018,10,24,15,07,13.00
2018,10,24,15,08,13.00
2018,10,24,15,09,13.00
2018,10,24,15,10,13.10
2018,10,24,15,11,13.10
2018,10,24,15,12,13.10
2018,10,24,15,13,13.10
2018,10,24,15,14,13.10
2018,10,24,15,15,13.10
2018,10,24,15,16,13.10
2018,10,24,15,17,13.10
2018,10,24,15,18,13.10
2018,10,24,15,19,13.10
2018,10,24,15,20,13.10
2018,10,24,15,21,13.10
2018,10,24,15,22,13.20
2018,10,24,15,23,13.20
2018,10,24,15,24,13.20
2018,10,24,15,25,13.20
2018,10,24,15,26,13.20
2018,10,24,15,27,13.20
2018,10,24,15,28,13.20
2018,10,24,15,29,13.20
2018,10,24,15,30,13.20
2018,10,24,15,31,13.20
2018,10,24,15,32,13.20
2018,10,24,15,33,13.30
2018,10,24,15,34,13.20
2018,10,24,15,35,13.20
2018,10,24,15,36,13.20
2018,10,24,15,37,13.20
2018,10,24,15,38,13.20
2018,10,24,15,39,13.20
2018,10,24,15,40,13.20
2018,10,24,15,41,13.20
2018,10,24,15,42,13.20
2018,10,24,15,43,13.20
2018,10,24,15,44,13.20
2018,10,24,15,45,13.20
2018,10,24,15,46,13.20
2018,10,24,15,47,13.20
2018,10,24,15,48,13.20
2018,10,24,15,49,13.20
2018,10,24,15,50,13.20
2018,10,24,15,51,13.20
2018,10,24,15,52,13.30
2018,10,24,15,53,13.30
2018,10,24,15,54,13.30
2018,10,24,15,55,13.30
2018,10,24,15,56,13.30
2018,10,24,15,57,13.30
2018,10,24,15,58,13.30
2018,10,24,15,59,13.30
2018,10,24,16,00,13.30
2018,10,24,16,01,13.30
2018,10,24,16,02,13.20
2018,10,24,16,03,13.20
2018,10,24,16,04,13.20
2018,10,24,16,05,13.20
2018,10,24,16,06,13.20
2018,10,24,16,07,13.20
2018,10,24,16,08,13.20
2018,10,24,16,09,13.20
2018,10,24,16,10,13.20
2018,10,24,16,11,13.20
2018,10,24,16,12,13.20
2018,10,24,16,13,13.20
2018,10,24,16,14,13.20
2018,10,24,16,15,13.20
2018,10,24,16,16,13.20
2018,10,24,16,17,13.20
2018,10,24,16,18,13.20
2018,10,24,16,19,13.20
2018,10,24,16,20,13.20
2018,10,24,16,21,13.20
2018,10,24,16,22,13.20
2018,10,24,16,23,13.20
2018,10,24,16,24,13.20
2018,10,24,16,25,13.20
2018,10,24,16,26,13.20
2018,10,24,16,27,13.20
2018,10,24,16,28,13.20
2018,10,24,16,29,13.20
2018,10,24,16,30,13.20
2018,10,24,16,31,13.20
2018,10,24,16,32,13.20
2018,10,24,16,33,13.20
2018,10,24,16,34,13.20
2018,10,24,16,35,13.20
2018,10,24,16,36,13.20
2018,10,24,16,37,13.20
2018,10,24,16,38,13.20
2018,10,24,16,39,13.20
2018,10,24,16,40,13.20
2018,10,24,16,41,13.20
2018,10,24,16,42,13.20
2018,10,24,16,43,13.20
2018,10,24,16,44,13.20
2018,10,24,16,45,13.20
2018,10,24,16,46,13.20
2018,10,24,16,47,13.20
2018,10,24,16,48,13.20
2018,10,24,16,49,13.20
2018,10,24,16,50,13.20
2018,10,24,16,51,13.20
2018,10,24,16,52,13.20
2018,10,24,16,53,13.20
2018,10,24,16,54,13.20
2018,10,24,16,55,13.20
2018,10,24,16,56,13.20
2018,10,24,16,57,13.20
2018,10,24,16,58,13.20
2018,10,24,16,59,13.20
2018,10,24,17,00,13.20
2018,10,24,17,01,13.20
2018,10,24,17,02,13.20
2018,10,24,17,03,13.20
2018,10,24,17,04,13.20
2018,10,24,17,05,13.20
2018,10,24,17,06,13.20
2018,10,24,17,07,13.20
2018,10,24,17,08,13.20
2018,10,24,17,09,13.20
2018,10,24,17,10,13.20
2018,10,24,17,11,13.20
2018,10,24,17,12,13.20
2018,10,24,17,13,13.20
2018,10,24,17,14,13.20
2018,10,24,17,15,13.20
2018,10,24,17,16,13.20
2018,10,24,17,17,13.20
2018,10,24,17,18,13.20
2018,10,24,17,19,13.20
2018,10,24,17,20,13.20
2018,10,24,17,21,13.20
2018,10,24,17,22,13.20
2018,10,24,17,23,13.20
2018,10,24,17,24,13.20
2018,10,24,17,25,13.20
2018,10,24,17,26,13.20
2018,10,24,17,27,13.20
2018,10,24,17,28,13.20
2018,10,24,17,29,13.20
2018,10,24,17,30,13.20
2018,10,24,17,31,13.20
2018,10,24,17,32,13.10
2018,10,24,17,33,13.10
2018,10,24,17,34,13.10
2018,10,24,17,35,13.10
2018,10,24,17,36,13.10
2018,10,24,17,37,13.10
2018,10,24,17,38,13.10
2018,10,24,17,39,13.10
2018,10,24,17,40,13.10
2018,10,24,17,41,13.10
2018,10,24,17,42,13.10
2018,10,24,17,43,13.00
2018,10,24,17,44,13.00
2018,10,24,17,45,13.00
2018,10,24,17,46,13.00
2018,10,24,17,47,13.00
2018,10,24,17,48,13.00
2018,10,24,17,49,13.00
2018,10,24,17,50,13.00
2018,10,24,17,51,13.00
2018,10,24,17,52,13.00
2018,10,24,17,53,13.00
2018,10,24,17,54,13.00
2018,10,24,17,55,13.00
2018,10,24,17,56,12.90
2018,10,24,17,57,12.90
2018,10,24,17,58,12.90
2018,10,24,17,59,12.90
2018,10,24,18,00,12.90
2018,10,24,18,01,12.90
2018,10,24,18,02,12.90
2018,10,24,18,03,12.80
2018,10,24,18,04,12.80
2018,10,24,18,05,12.80
2018,10,24,18,06,12.80
2018,10,24,18,07,12.70
2018,10,24,18,08,12.70
2018,10,24,18,09,12.70
2018,10,24,18,10,12.70
2018,10,24,18,11,12.70
2018,10,24,18,12,12.70
2018,10,24,18,13,12.70
2018,10,24,18,14,12.70
2018,10,24,18,15,12.70
2018,10,24,18,16,12.70
2018,10,24,18,17,12.70
2018,10,24,18,18,12.70
2018,10,24,18,19,12.70
2018,10,24,18,20,12.70
2018,10,24,18,21,12.70
2018,10,24,18,22,12.70
2018,10,24,18,23,12.70
2018,10,24,18,24,12.70
2018,10,24,18,25,12.70
2018,10,24,18,26,12.70
2018,10,24,18,27,12.70
2018,10,24,18,28,12.70
2018,10,24,18,29,12.70
2018,10,24,18,30,12.70
2018,10,24,18,31,12.70
2018,10,24,18,32,12.70
2018,10,24,18,33,12.70
2018,10,24,18,34,12.70
2018,10,24,18,35,12.60
2018,10,24,18,36,12.60
2018,10,24,18,37,12.60
2018,10,24,18,38,12.60
2018,10,24,18,39,12.60
2018,10,24,18,40,12.60
2018,10,24,18,41,12.60
2018,10,24,18,42,12.60
2018,10,24,18,43,12.60
2018,10,24,18,44,12.60
2018,10,24,18,45,12.60
2018,10,24,18,46,12.60
2018,10,24,18,47,12.60
2018,10,24,18,48,12.60
2018,10,24,18,49,12.60
2018,10,24,18,50,12.60
2018,10,24,18,51,12.60
2018,10,24,18,52,12.60
2018,10,24,18,53,12.60
2018,10,24,18,54,12.60
2018,10,24,18,55,12.60
2018,10,24,18,56,12.60
2018,10,24,18,57,12.60
2018,10,24,18,58,12.60
2018,10,24,18,59,12.60
2018,10,24,19,00,12.60
2018,10,24,19,01,12.60
2018,10,24,19,02,12.60
2018,10,24,19,03,12.60
2018,10,24,19,04,12.60
2018,10,24,19,05,12.60
2018,10,24,19,06,12.60
2018,10,24,19,07,12.60
2018,10,24,19,08,12.60
2018,10,24,19,09,12.60
2018,10,24,19,10,12.60
2018,10,24,19,11,12.60
2018,10,24,19,12,12.60
2018,10,24,19,13,12.60
2018,10,24,19,14,12.60
2018,10,24,19,15,12.60
2018,10,24,19,16,12.60
2018,10,24,19,17,12.60
2018,10,24,19,18,12.60
2018,10,24,19,19,12.60
2018,10,24,19,20,12.50
2018,10,24,19,21,12.50
2018,10,24,19,22,12.50
2018,10,24,19,23,12.50
2018,10,24,19,24,12.50
2018,10,24,19,25,12.50
2018,10,24,19,26,12.50
2018,10,24,19,27,12.50
2018,10,24,19,28,12.50
2018,10,24,19,29,12.50
2018,10,24,19,30,12.50
2018,10,24,19,31,12.50
2018,10,24,19,32,12.50
2018,10,24,19,33,12.50
2018,10,24,19,34,12.50
2018,10,24,19,35,12.50
2018,10,24,19,36,12.50
2018,10,24,19,37,12.50
2018,10,24,19,38,12.50
2018,10,24,19,39,12.50
2018,10,24,19,40,12.50
2018,10,24,19,41,12.50
2018,10,24,19,42,12.50
2018,10,24,19,43,12.50
2018,10,24,19,44,12.50
2018,10,24,19,45,12.50
2018,10,24,19,46,12.50
2018,10,24,19,47,12.40
2018,10,24,19,48,12.40
2018,10,24,19,49,12.40
2018,10,24,19,50,12.40
2018,10,24,19,51,12.40
2018,10,24,19,52,12.40
2018,10,24,19,53,12.40
2018,10,24,19,54,12.40
2018,10,24,19,55,12.40
2018,10,24,19,56,12.40
2018,10,24,19,57,12.40
2018,10,24,19,58,12.40
2018,10,24,19,59,12.40
2018,10,24,20,00,12.40
2018,10,24,20,01,12.40
2018,10,24,20,02,12.40
2018,10,24,20,03,12.40
2018,10,24,20,04,12.40
2018,10,24,20,05,12.40
2018,10,24,20,06,12.50
2018,10,24,20,07,12.40
2018,10,24,20,08,12.50
2018,10,24,20,09,12.50
2018,10,24,20,10,12.40
2018,10,24,20,11,12.50
2018,10,24,20,12,12.40
2018,10,24,20,13,12.50
2018,10,24,20,14,12.40
2018,10,24,20,15,12.40
2018,10,24,20,16,12.40
2018,10,24,20,17,12.40
2018,10,24,20,18,12.40
2018,10,24,20,19,12.40
2018,10,24,20,20,12.40
2018,10,24,20,21,12.40
2018,10,24,20,22,12.40
2018,10,24,20,23,12.40
2018,10,24,20,24,12.40
2018,10,24,20,25,12.30
2018,10,24,20,26,12.30
2018,10,24,20,27,12.30
2018,10,24,20,28,12.30
2018,10,24,20,29,12.30
2018,10,24,20,30,12.30
2018,10,24,20,31,12.20
2018,10,24,20,32,12.20
2018,10,24,20,33,12.20
2018,10,24,20,34,12.20
2018,10,24,20,35,12.20
2018,10,24,20,36,12.20
2018,10,24,20,37,12.20
2018,10,24,20,38,12.20
2018,10,24,20,39,12.20
2018,10,24,20,40,12.20
2018,10,24,20,41,12.20
2018,10,24,20,42,12.20
2018,10,24,20,43,12.20
2018,10,24,20,44,12.20
2018,10,24,20,45,12.20
2018,10,24,20,46,12.20
2018,10,24,20,47,12.20
2018,10,24,20,48,12.20
2018,10,24,20,49,12.20
2018,10,24,20,50,12.20
2018,10,24,20,51,12.20
2018,10,24,20,52,12.20
2018,10,24,20,53,12.20
2018,10,24,20,54,12.10
2018,10,24,20,55,12.10
2018,10,24,20,56,12.10
2018,10,24,20,57,12.10
2018,10,24,20,58,12.10
2018,10,24,20,59,12.10
2018,10,24,21,00,12.10
2018,10,24,21,01,12.10
2018,10,24,21,02,12.10
2018,10,24,21,03,12.10
2018,10,24,21,04,12.10
2018,10,24,21,05,12.00
2018,10,24,21,06,12.00
2018,10,24,21,07,12.00
2018,10,24,21,08,12.00
2018,10,24,21,09,12.00
2018,10,24,21,10,11.90
2018,10,24,21,11,11.90
2018,10,24,21,12,11.90
2018,10,24,21,13,11.90
2018,10,24,21,14,11.90
2018,10,24,21,15,11.90
2018,10,24,21,16,11.90
2018,10,24,21,17,11.90
2018,10,24,21,18,11.90
2018,10,24,21,19,11.90
2018,10,24,21,20,11.90
2018,10,24,21,21,11.80
2018,10,24,21,22,11.80
2018,10,24,21,23,11.80
2018,10,24,21,24,11.80
2018,10,24,21,25,11.80
2018,10,24,21,26,11.80
2018,10,24,21,27,11.80
2018,10,24,21,28,11.80
2018,10,24,21,29,11.80
2018,10,24,21,30,11.80
2018,10,24,21,31,11.70
2018,10,24,21,32,11.70
2018,10,24,21,33,11.70
2018,10,24,21,34,11.70
2018,10,24,21,35,11.70
2018,10,24,21,36,11.70
2018,10,24,21,37,11.70
2018,10,24,21,38,11.70
2018,10,24,21,39,11.60
2018,10,24,21,40,11.60
2018,10,24,21,41,11.60
2018,10,24,21,42,11.60
2018,10,24,21,43,11.60
2018,10,24,21,44,11.60
2018,10,24,21,45,11.60
2018,10,24,21,46,11.60
2018,10,24,21,47,11.60
2018,10,24,21,48,11.60
2018,10,24,21,49,11.60
2018,10,24,21,50,11.60
2018,10,24,21,51,11.60
2018,10,24,21,52,11.60
2018,10,24,21,53,11.60
2018,10,24,21,54,11.60
2018,10,24,21,55,11.70
2018,10,24,21,56,11.70
2018,10,24,21,57,11.70
2018,10,24,21,58,11.70
2018,10,24,21,59,11.70
2018,10,24,22,00,11.70
2018,10,24,22,01,11.70
2018,10,24,22,02,11.70
2018,10,24,22,03,11.70
2018,10,24,22,04,11.70
2018,10,24,22,05,11.70
2018,10,24,22,06,11.70
2018,10,24,22,07,11.70
2018,10,24,22,08,11.70
2018,10,24,22,09,11.70
2018,10,24,22,10,11.70
2018,10,24,22,11,11.70
2018,10,24,22,12,11.70
2018,10,24,22,13,11.70
2018,10,24,22,14,11.70
2018,10,24,22,15,11.70
2018,10,24,22,16,11.70
2018,10,24,22,17,11.70
2018,10,24,22,18,11.70
2018,10,24,22,19,11.70
2018,10,24,22,20,11.70
2018,10,24,22,21,11.70
2018,10,24,22,22,11.70
2018,10,24,22,23,11.70
2018,10,24,22,24,11.70
2018,10,24,22,25,11.70
2018,10,24,22,26,11.70
2018,10,24,22,27,11.70
2018,10,24,22,28,11.70
2018,10,24,22,29,11.70
2018,10,24,22,30,11.70
2018,10,24,22,31,11.70
2018,10,24,22,32,11.70
2018,10,24,22,33,11.70
2018,10,24,22,34,11.70
2018,10,24,22,35,11.70
2018,10,24,22,36,11.70
2018,10,24,22,37,11.70
2018,10,24,22,38,11.70
2018,10,24,22,39,11.70
2018,10,24,22,40,11.70
2018,10,24,22,41,11.70
2018,10,24,22,42,11.70
2018,10,24,22,43,11.70
2018,10,24,22,44,11.70
2018,10,24,22,45,11.70
2018,10,24,22,46,11.70
2018,10,24,22,47,11.70
2018,10,24,22,48,11.70
2018,10,24,22,49,11.70
2018,10,24,22,50,11.70
2018,10,24,22,51,11.70
2018,10,24,22,52,11.70
2018,10,24,22,53,11.70
2018,10,24,22,54,11.70
2018,10,24,22,55,11.70
2018,10,24,22,56,11.70